Tiempo cada hora Abaytikau

Hoy, 28 Octubre, Miércoles

Tiempo Temperatura Precipitaciones Viento Presión Humedad
00:00 +4°C° 0 mm 2 mps 579 mmHg 67%
01:00 +4°C° 0 mm 2 mps 579 mmHg 66%
02:00 +4°C° 0 mm 2 mps 580 mmHg 66%
03:00 +4°C° 0 mm 2 mps 580 mmHg 68%
04:00 +4°C° 0 mm 2 mps 580 mmHg 68%
05:00 +4°C° 0 mm 2 mps 579 mmHg 68%
06:00 +4°C° 0 mm 2 mps 579 mmHg 68%
07:00 +5°C° 0 mm 2 mps 580 mmHg 62%
08:00 +7°C° 0 mm 2 mps 581 mmHg 57%
09:00 +10°C° 0 mm 1 mps 582 mmHg 51%
10:00 +11°C° 0 mm 1 mps 582 mmHg 49%
11:00 +10°C° 0 mm 2 mps 582 mmHg 46%
12:00 +12°C° 0 mm 2 mps 582 mmHg 44%
13:00 +12°C° 0 mm 2 mps 582 mmHg 46%
14:00 +12°C° 0 mm 2 mps 582 mmHg 47%
15:00 +10°C° 0 mm 2 mps 582 mmHg 49%
16:00 +9°C° 0 mm 2 mps 581 mmHg 56%
17:00 +7°C° 0 mm 2 mps 580 mmHg 63%
18:00 +5°C° 0 mm 2 mps 579 mmHg 70%
19:00 +5°C° 0 mm 2 mps 579 mmHg 66%
20:00 +5°C° 0 mm 2 mps 579 mmHg 63%
21:00 +5°C° 0 mm 2 mps 579 mmHg 59%
22:00 +5°C° 0 mm 2 mps 579 mmHg 58%
23:00 +5°C° 0 mm 2 mps 579 mmHg 58%

Mañana, 29 Octubre, Jueves

Tiempo Temperatura Precipitaciones Viento Presión Humedad
00:00 +5°C° 0 mm 2 mps 579 mmHg 57%
01:00 +5°C° 0 mm 2 mps 579 mmHg 57%
02:00 +5°C° 0 mm 2 mps 578 mmHg 57%
03:00 +5°C° 0 mm 2 mps 578 mmHg 57%
04:00 +5°C° 0 mm 2 mps 578 mmHg 56%
05:00 +5°C° 0 mm 2 mps 578 mmHg 55%
06:00 +5°C° 0 mm 2 mps 578 mmHg 54%
07:00 +7°C° 0 mm 2 mps 579 mmHg 50%
08:00 +8°C° 0 mm 2 mps 580 mmHg 47%
09:00 +10°C° 0 mm 2 mps 581 mmHg 43%
10:00 +12°C° 0 mm 2 mps 581 mmHg 43%
11:00 +12°C° 0 mm 3 mps 581 mmHg 42%
12:00 +12°C° 0 mm 3 mps 581 mmHg 41%
13:00 +12°C° 0 mm 3 mps 581 mmHg 42%
14:00 +12°C° 0 mm 3 mps 581 mmHg 43%
15:00 +12°C° 0 mm 3 mps 580 mmHg 44%
16:00 +10°C° 0 mm 3 mps 579 mmHg 51%
17:00 +8°C° 0 mm 2 mps 579 mmHg 58%
18:00 +6°C° 0 mm 2 mps 578 mmHg 66%
19:00 +6°C° 0 mm 2 mps 578 mmHg 65%
20:00 +6°C° 0 mm 2 mps 578 mmHg 64%
21:00 +6°C° 0 mm 2 mps 578 mmHg 62%
22:00 +6°C° 0 mm 2 mps 578 mmHg 62%
23:00 +6°C° 0 mm 2 mps 577 mmHg 62%

Pasado mañana, 30 Octubre, Viernes

Tiempo Temperatura Precipitaciones Viento Presión Humedad
00:00 +5°C° 0 mm 3 mps 577 mmHg 61%
01:00 +6°C° 0 mm 2 mps 577 mmHg 62%
02:00 +6°C° 0 mm 2 mps 577 mmHg 63%
03:00 +5°C° 0 mm 2 mps 577 mmHg 63%
04:00 +5°C° 0 mm 2 mps 577 mmHg 64%
05:00 +5°C° 0 mm 2 mps 576 mmHg 65%
06:00 +5°C° 0 mm 2 mps 576 mmHg 66%
07:00 +6°C° 0 mm 2 mps 577 mmHg 62%
08:00 +8°C° 0 mm 1 mps 578 mmHg 58%
09:00 +10°C° 0 mm 1 mps 579 mmHg 54%
10:00 +9°C° 0 mm 2 mps 580 mmHg 53%
11:00 +10°C° 0 mm 2 mps 580 mmHg 52%
12:00 +12°C° 0 mm 2 mps 580 mmHg 50%
13:00 +12°C° 0 mm 2 mps 579 mmHg 51%
14:00 +10°C° 0 mm 3 mps 579 mmHg 52%
15:00 +10°C° 0 mm 3 mps 579 mmHg 53%
16:00 +9°C° 0 mm 2 mps 578 mmHg 60%
17:00 +7°C° 0 mm 2 mps 577 mmHg 67%
18:00 +5°C° 0 mm 2 mps 577 mmHg 74%
19:00 +5°C° 0 mm 2 mps 577 mmHg 71%
20:00 +5°C° 0 mm 2 mps 577 mmHg 68%
21:00 +5°C° 0 mm 2 mps 577 mmHg 64%
22:00 +5°C° 0 mm 2 mps 576 mmHg 64%
23:00 +5°C° 0 mm 2 mps 576 mmHg 63%

31 Octubre, Sábado

Tiempo Temperatura Precipitaciones Viento Presión Humedad
00:00 +5°C° 0 mm 2 mps 576 mmHg 63%
01:00 +5°C° 0 mm 2 mps 576 mmHg 63%
02:00 +4°C° 0 mm 3 mps 576 mmHg 63%
03:00 +4°C° 0 mm 3 mps 576 mmHg 63%
04:00 +4°C° 0 mm 3 mps 576 mmHg 64%
05:00 +3°C° 0 mm 3 mps 576 mmHg 66%
06:00 +3°C° 0 mm 3 mps 576 mmHg 67%
07:00 +5°C° 0 mm 3 mps 576 mmHg 63%
08:00 +7°C° 0 mm 3 mps 577 mmHg 59%
09:00 +9°C° 0 mm 3 mps 578 mmHg 56%
10:00 +10°C° 0.1 mm 4 mps 578 mmHg 53%
11:00 +10°C° 0.1 mm 4 mps 578 mmHg 51%
12:00 +10°C° 0.1 mm 5 mps 578 mmHg 49%
13:00 +10°C° 0 mm 5 mps 578 mmHg 49%
14:00 +11°C° 0 mm 4 mps 578 mmHg 49%
15:00 +11°C° 0 mm 4 mps 578 mmHg 49%
16:00 +9°C° 0 mm 3 mps 577 mmHg 58%
17:00 +8°C° 0 mm 3 mps 577 mmHg 66%
18:00 +6°C° 0 mm 2 mps 576 mmHg 75%
19:00 +5°C° 0.1 mm 3 mps 576 mmHg 75%
20:00 +5°C° 0.1 mm 3 mps 576 mmHg 76%
21:00 +5°C° 0.1 mm 3 mps 577 mmHg 77%
22:00 +5°C° 0 mm 3 mps 576 mmHg 77%
23:00 +5°C° 0 mm 3 mps 576 mmHg 76%

1 Noviembre, Domingo

Tiempo Temperatura Precipitaciones Viento Presión Humedad
00:00 +5°C° 0 mm 3 mps 576 mmHg 76%
01:00 +4°C° 0 mm 3 mps 576 mmHg 75%
02:00 +4°C° 0 mm 3 mps 576 mmHg 74%
03:00 +4°C° 0 mm 3 mps 576 mmHg 73%
04:00 +4°C° 0 mm 3 mps 576 mmHg 71%
05:00 +4°C° 0 mm 3 mps 576 mmHg 70%
06:00 +4°C° 0 mm 3 mps 576 mmHg 68%
07:00 +5°C° 0 mm 3 mps 577 mmHg 65%
08:00 +7°C° 0 mm 3 mps 578 mmHg 63%
09:00 +8°C° 0 mm 3 mps 579 mmHg 60%
10:00 +8°C° 0 mm 4 mps 579 mmHg 56%
11:00 +10°C° 0 mm 4 mps 580 mmHg 53%
12:00 +11°C° 0 mm 4 mps 580 mmHg 49%
13:00 +10°C° 0 mm 4 mps 580 mmHg 50%
14:00 +10°C° 0 mm 4 mps 580 mmHg 52%
15:00 +10°C° 0 mm 3 mps 580 mmHg 53%
16:00 +8°C° 0 mm 3 mps 579 mmHg 59%
17:00 +7°C° 0 mm 3 mps 579 mmHg 64%
18:00 +5°C° 0 mm 2 mps 579 mmHg 70%
19:00 +5°C° 0 mm 2 mps 579 mmHg 68%
20:00 +4°C° 0 mm 3 mps 579 mmHg 67%
21:00 +4°C° 0 mm 3 mps 579 mmHg 65%
22:00 +4°C° 0 mm 3 mps 579 mmHg 63%
23:00 +5°C° 0 mm 2 mps 579 mmHg 62%

2 Noviembre, Lunes

Tiempo Temperatura Precipitaciones Viento Presión Humedad
00:00 +5°C° 0 mm 2 mps 579 mmHg 60%
01:00 +5°C° 0 mm 2 mps 579 mmHg 59%
02:00 +5°C° 0 mm 2 mps 579 mmHg 58%
03:00 +5°C° 0 mm 2 mps 579 mmHg 58%
04:00 +5°C° 0 mm 2 mps 579 mmHg 57%
05:00 +5°C° 0 mm 2 mps 579 mmHg 56%
06:00 +5°C° 0 mm 2 mps 580 mmHg 56%
07:00 +6°C° 0 mm 2 mps 580 mmHg 52%
08:00 +8°C° 0 mm 2 mps 581 mmHg 48%
09:00 +9°C° 0 mm 2 mps 582 mmHg 44%
10:00 +10°C° 0 mm 3 mps 583 mmHg 42%
11:00 +11°C° 0 mm 3 mps 583 mmHg 39%
12:00 +11°C° 0 mm 3 mps 583 mmHg 37%
13:00 +11°C° 0 mm 3 mps 583 mmHg 36%
14:00 +11°C° 0 mm 3 mps 583 mmHg 36%
15:00 +11°C° 0 mm 3 mps 583 mmHg 36%
16:00 +10°C° 0 mm 2 mps 582 mmHg 41%
17:00 +8°C° 0 mm 2 mps 582 mmHg 46%
18:00 +6°C° 0 mm 2 mps 581 mmHg 51%
19:00 +6°C° 0 mm 2 mps 581 mmHg 51%
20:00 +6°C° 0 mm 2 mps 581 mmHg 50%
21:00 +6°C° 0 mm 2 mps 581 mmHg 50%
22:00 +6°C° 0 mm 2 mps 581 mmHg 50%
23:00 +6°C° 0 mm 2 mps 581 mmHg 50%
Mostrar más

Necesitamos Su Consentimiento

Meteoprog y nuestros Proveedores de Servicios pueden almacenar y acceder a sus datos personales como cookies, identificadores de dispositivo u otras tecnologías similares de su dispositivo y procesar dichos datos para personalizar contenido y anuncios, además de ofrecer funciones de redes sociales y analizar el tráfico.

  • Almacenar y/o acceder a información en su dispositivo

    Se puede almacenar o acceder a cookies, identificadores de dispositivo u otra información de su dispositivo para los fines anteriormente indicados.

  • Anuncios y contenido personalizados, medición de anuncios y contenido, percepciones del público, y desarrollo de productos

    Los anuncios y el contenido pueden personalizarse en base a su perfil. Se pueden añadir más datos para personalizar mejor los anuncios y contenidos. Se puede medir el rendimiento de los anuncios y contenidos. Se puede obtener la percepción sobre el público que ha visto los anuncios y contenidos. Dichos datos pueden usarse para desarrollar o mejorar la experiencia del usuario, sistemas y software.

Al hacer clic en ‘Estoy De Acuerdo’ usted permitirá el uso de las cookies, identificadores de dispositivo, balizas web u otras tecnologías similares indicadas. Su configuración puede cambiarse desde el navegador de su dispositivo.

Para ciertos fines, los intereses legítimos pueden ser considerados por encima del consentimiento. Puede leer más sobre ello en nuestra Política de Privacidad y Cookies.